Regional Weather Roundup
Issued by NWS Jackson, KY

Home | Current Version | Previous Version | Graphics & Text | Print | Product List | Glossary On
Versions: 1 2 3 4 5 6 7 8 9 10 11 12 13 14 15 16 17 18 19 20 21 22 23 24 25 26 27 28 29 30 31 32 33 34 35 36 37 38 39 40 41 42 43 44 45 46 47 48 49 50
000
ASUS43 KJKL 280310
RWRJKL

EAST KENTUCKY HOURLY WEATHER ROUNDUP
NATIONAL WEATHER SERVICE JACKSON KY
1000 PM EST FRI FEB 27 2015

NOTE: "FAIR" INDICATES FEW OR NO CLOUDS BELOW 12,000 FEET WITH
NO SIGNIFICANT WEATHER AND/OR OBSTRUCTIONS TO VISIBILITY.

* THESE REPORTS ARE NOT UNDER NWS QUALITY CONTROL AND MAY NOT
  REPORT WEATHER SUCH AS PRECIPITATION AND FOG.

KYZ079-080-083-085-087-088-110-112-115-119-120-280400
...EASTERN KENTUCKY...

CITY           SKY/WX    TMP DP  RH WIND       PRES   REMARKS
JACKSON        CLEAR     18   5  57 NE6       30.58R WCI  10
LONDON         PTCLDY    20   5  52 VRB7      30.58R WCI  11
SOMERSET*      MOCLDY    19   5  53 NE5       30.62S WCI  13
MONTICELLO*    MOCLDY    21   9  60 NE8       30.63R WCI  11
MIDDLESBORO*   PTCLDY    21  14  74 CALM      30.56R
HAZARD APT*    CLEAR     21   9  58 CALM      30.59R
BLACK MTN*       N/A      9   7  92 NW3         N/A
PIKEVILLE APT* CLEAR     18   7  62 NE7       30.57R WCI   8
BIG SANDY*     CLEAR     18   7  60 NE5       30.60R WCI  11
MOREHEAD APT*  MOCLDY    16   0  48 NE5       30.65R WCI   9
$$

KYZ035-036-041-042-044-050-067-078-099-280400
...CENTRAL KENTUCKY...

CITY           SKY/WX    TMP DP  RH WIND       PRES   REMARKS
MT STERLING*   PTCLDY    18   7  62 E5        30.64S WCI  11
FLEMING/MASON* CLEAR     14   1  57 NE8       30.65S WCI   3
DANVILLE*      CLOUDY    18   9  68 NE3       30.63R
RICHMOND*      CLOUDY    18   7  62 CALM      30.61S
LEXINGTON        N/A     19   7  59 NE3       30.63R
FRANKFORT      MOCLDY    18   7  62 CALM      30.62S
$$

KYZ091>093-OHZ055-061-077-WVZ005-015-034-035-042-280400
...SOUTHERN OHIO/WEST VIRGINIA...

CITY           SKY/WX    TMP DP  RH WIND       PRES   REMARKS
COVINGTON      CLOUDY    15   2  56 N6        30.64S WCI   6
COLUMBUS       PTCLDY    11  -2  56 CALM      30.68R
DAYTON         PTCLDY    12   0  58 E3        30.65R
WILMINGTON     MOCLDY     6  -4  63 CALM      30.65R
HUNTINGTON     CLEAR     17   4  56 NE5       30.64R WCI  10
CHARLESTON     CLEAR     17   5  59 CALM      30.63R
PINEVILLE*     CLEAR     11  10  92 MISG      30.59R
BECKLEY        CLEAR     11   2  67 N7        30.49R WCI   0
BLUEFIELD      CLEAR     15   4  61 CALM      30.46R
$$

VAZ002-007-008-TNZ017-027-036-066-071-280400
...SOUTHWEST VIRGINIA/EAST TENNESSEE...

CITY           SKY/WX    TMP DP  RH WIND       PRES   REMARKS
WISE*          CLEAR     16   7  67 N6        30.47R WCI   7
JONESVILLE*    PTCLDY    16   9  73 CALM      30.56R
ABINGDON*      CLEAR     19  13  77 CALM      30.47R
BRISTOL        PTCLDY    23  13  65 E3        30.52R
KNOXVILLE      PTCLDY    27  11  51 N9        30.52R WCI  18
OAK RIDGE      PTCLDY    28   9  44 VRB5      30.55R WCI  23
CROSSVILLE     CLEAR     22   8  55 N10       30.50R WCI  11
NASHVILLE      CLOUDY    26   7  44 NE8       30.61R WCI  18
$$

...KEY TO REMARKS...
VSB - VISIBILITY IN MILES
WCI - WIND CHILL INDEX
HX  - HEAT INDEX

$$


USA.gov is the U.S. government's official web portal to all federal, state and local government web resources and services.